STARLINK-1815, 46713

Orbit data source: Space-Track

STARLINK-1815, 46713 is a payload satellite owned by SpaceX/Seattle (US) in LEO that was launched on Sun, 18 Oct 2020 UTC via an FALCON 9 launch vehicle from the Air Force Eastern Test Range (AFETR). Payload-class satellites include a variety of spacecraft equipped with specific instruments for various scientific and technological missions. These include communications satellites like Starlink; space stations such as the ISS; scientific satellites like the Hubble; Earth observation satellites from companies like Planet Labs, Umbra, and HawkEye 360; GPS; miniature CubeSats for education and research; and military/defense satellites.

Loading next visibility...
Identifier
46713, 2020-073AV
Orbit
LEO
Country
Flag of USUS
Related business
Manufacturer
SpaceX/Seattle
Mission
Partially operational Commercial Communications
Bus & Motor
STARLINK, Unknown motor
Mass
260 kg wet, ~248 kg dry
Launch date (UTC)
2020-10-18 (5 years ago)
Launch vehicle
FALCON 9
Launch site
Air Force Eastern Test Range (AFETR)
Object type
Payload
Rocket body
Debris
Shape & HBR
Box + 1 Pan, 10.1 m
Radar Cross Section
13.562 m², Large (>1 m²)

Expand to show TLE details & history
Last TLE update: 10 hours ago

TLE from 10 hours ago
0 STARLINK-1815
1 46713U 20073AV  26105.17941262  .00086383  00000-0  50600-3 0  9991
2 46713  53.0442  21.0871 0005976 125.7504 234.4072 15.77598728303424
Epoch: 2026-04-15T04:18Z
TLE epoch observation values (Epoch: 2026-04-15T04:18:21.250Z)
Latitude
-0.00004°
Longitude
113.15351°
Altitude
340.489 km
Speed
7.704 km/s
True Right ascension
01h 24m 20s
True Declination
0° 00' 00"
Sunlit
Object was in daylight at epoch
Visualization orbit readout
Latitude
Unknown
Longitude
Unknown
Altitude
Unknown
Speed
Unknown
Apparent Right ascension
Unknown
Apparent Declination
Unknown
Sunlit
N/A
Visualization observer readout
Local Sidereal Time
20:26:49
Azimuth
Unknown
Elevation
Unknown
Doppler factor
Unknown
Orbital elements
Apogee altitude
341.54 km
Perigee altitude
333.514 km
Semi-major axis
6,715.664 km
Eccentricity
0.0006
Inclination
53.0442°
RAAN
21.0871°
Arg. of periapsis
125.7504°
True anomaly
234.35154°
Mean anomaly
234.4072°
Eccentric anomaly
234.37937°
Mean motion
3.94375 °/min
Orbital period
91.28 mins
BSTAR
0.000506
Loading maneuver chart data...
Computing Atmospheric mass density...

Documentation

Showing up to 5 results
|